Flag for Thailand Weather past 2 weeks in Hat Yai, Thailand

Now
82 °F

Passing clouds.


Feels Like: 91 °F
Forecast: 78 / 94 °F
Wind: 2 mph from North

Location: Hat Yai Airport


UV Index: 10 (Very high)

Visibility: N/A


Pressure: 29.77 "Hg

Humidity: 84%

Dew point: 77 °F

Location of Hat YaiLocation

Historic Weather in Hat Yai

°F

Hat Yai temperature yesterday

Maximum temperature yesterday: 93 °F (at 1:00 PM)
Minimum temperature yesterday: 75 °F (at 5:00 AM)
Average temperature yesterday: 82 °F

Past Weeks' High & Low Weather Summary

 TemperatureHumidityPressure
High97 °F (Apr 13, 2:30 PM)100% (Apr 5, 1:30 AM)29.95 "Hg (Apr 5, 1:30 AM)
Low73 °F (Apr 8, 5:00 AM)23% (Apr 13, 3:00 PM)29.68 "Hg (Apr 16, 4:00 PM)
Average82 °F78%29.82 "Hg
* Reported Apr 4 8:00 PM — Apr 19 8:30 PM, Hat Yai, Weather by CustomWeather, © 2014

Note: Actual official high and low records may vary slightly from our data, if they occured in-between our weather recording intervals... More about our weather records

Advertising

Historic Weather Conditions — Data for Previous 24 hours

 ConditionsComfort  
Time TempWeatherWind HumidityBarometerVisibility
8:30 PM
Apr 19
84 °FPassing clouds.2 mph79%29.77 "HgN/A
8:00 PM84 °FPassing clouds.6 mph79%29.77 "HgN/A
7:30 PM84 °FPassing clouds.6 mph79%29.74 "HgN/A
7:00 PM86 °FPassing clouds.6 mph75%29.74 "HgN/A
6:30 PM86 °FPassing clouds.5 mph70%29.74 "HgN/A
6:00 PM88 °FPartly sunny.7 mph62%29.71 "HgN/A
5:30 PM90 °FPartly sunny.8 mph55%29.71 "HgN/A
5:00 PM91 °FPartly sunny.10 mph56%29.68 "HgN/A
4:30 PM91 °FPartly sunny.12 mph52%29.68 "HgN/A
4:00 PM93 °FPartly sunny.10 mph49%29.68 "HgN/A
3:30 PM93 °FPartly sunny.9 mph53%29.71 "HgN/A
3:00 PM95 °FBroken clouds.8 mph50%29.71 "HgN/A
2:30 PM93 °FBroken clouds.9 mph53%29.71 "HgN/A
2:00 PM93 °FBroken clouds.9 mph53%29.74 "HgN/A
1:30 PM93 °FBroken clouds.3 mph56%29.74 "HgN/A
1:00 PM93 °FBroken clouds.3 mph56%29.74 "HgN/A
12:30 PM91 °FBroken clouds.3 mph56%29.77 "HgN/A
12:00 PM91 °FBroken clouds.5 mph59%29.77 "HgN/A
11:30 AM91 °FBroken clouds.3 mph59%29.80 "HgN/A
11:00 AM90 °FBroken clouds.3 mph63%29.80 "HgN/A
10:30 AM88 °FBroken clouds.2 mph70%29.83 "HgN/A
10:00 AM88 °FBroken clouds.3 mph70%29.83 "HgN/A
9:30 AM86 °FScattered clouds.2 mph75%29.83 "HgN/A
9:00 AM84 °FScattered clouds.2 mph79%29.83 "HgN/A
8:30 AM81 °FScattered clouds.2 mph89%29.83 "Hg6 mi
8:00 AM79 °FScattered clouds.2 mph89%29.83 "Hg4 mi
7:30 AM77 °FScattered clouds.2 mph94%29.80 "Hg4 mi
7:00 AM75 °FScattered clouds.2 mph100%29.80 "Hg4 mi
6:30 AM73 °FFog.No wind100%29.80 "Hg3 mi
6:00 AM73 °FSleet. Fog.2 mph100%29.80 "Hg4 mi
5:30 AM75 °FFog.2 mph94%29.77 "Hg5 mi
5:00 AM75 °FFog.No wind94%29.77 "HgN/A
4:30 AM75 °FPassing clouds.No wind94%29.77 "HgN/A
4:00 AM75 °FPassing clouds.No wind94%29.77 "HgN/A
3:30 AM75 °FPassing clouds.2 mph94%29.77 "HgN/A
3:00 AM75 °FPassing clouds.3 mph94%29.80 "HgN/A
2:30 AM75 °FPassing clouds.3 mph100%29.80 "HgN/A
2:00 AM75 °FPartly cloudy.2 mph100%29.80 "HgN/A
1:30 AM75 °FPartly cloudy.No wind100%29.80 "HgN/A
1:00 AM75 °FPartly cloudy.2 mph100%29.80 "HgN/A
12:30 AM75 °FPartly cloudy.2 mph100%29.83 "HgN/A
12:00 AM77 °FPartly cloudy.2 mph94%29.83 "HgN/A
11:30 PM
Apr 18
77 °FPartly cloudy.2 mph94%29.86 "HgN/A
11:00 PM77 °FPassing clouds.2 mph94%29.86 "HgN/A
10:30 PM77 °FPassing clouds.No wind94%29.86 "HgN/A
10:00 PM77 °FPassing clouds.3 mph94%29.83 "HgN/A
9:30 PM77 °FPassing clouds.No wind94%29.83 "HgN/A
9:00 PM79 °FPassing clouds.3 mph89%29.83 "HgN/A
Weather by CustomWeather, © 2014

See weather overview